This is the latest recevied weather packets stored in our database for station/object W8UFO-13. If no packets are shown the sender has not sent any weather packets the latest 1 day(s).
| Time | Temp. | Humidity | Pressure | Rain* | Wind** | Luminosity | Snow |
|---|---|---|---|---|---|---|---|
| 1778058857 | 21.67° C | 67% | 1011.7 hPa | 0 mm | 0.45 m/s, 203° | - | - |
| 1778058256 | 21.67° C | 66% | 1011.8 hPa | 0 mm | 0.89 m/s, 293° | - | - |
| 1778057957 | 21.67° C | 66% | 1011.8 hPa | 0 mm | 1.34 m/s, 270° | - | - |
| 1778057356 | 21.67° C | 65% | 1011.4 hPa | 0 mm | 0.89 m/s, 248° | - | - |
| 1778057056 | 21.67° C | 65% | 1011.5 hPa | 0 mm | 0.89 m/s, 293° | - | - |
| 1778056756 | 22.22° C | 65% | 1011.5 hPa | 0 mm | 1.34 m/s, 293° | - | - |
| 1778056456 | 22.22° C | 65% | 1011.5 hPa | 0 mm | 0.89 m/s, 203° | - | - |
| 1778056156 | 22.22° C | 64% | 1011.4 hPa | 0 mm | 0.45 m/s, 293° | - | - |
| 1778055856 | 22.22° C | 64% | 1011.3 hPa | 0 mm | 0.45 m/s, 225° | - | - |
| 1778055556 | 21.67° C | 64% | 1010.9 hPa | 0 mm | 0.45 m/s, 203° | - | - |
| 1778054656 | 22.22° C | 63% | 1011.1 hPa | 0 mm | 0.89 m/s, 248° | - | - |
| 1778054356 | 22.22° C | 63% | 1011.6 hPa | 0 mm | 1.79 m/s, 248° | - | - |
| 1778054057 | 21.67° C | 63% | 1011.5 hPa | 0 mm | 0.89 m/s, 203° | - | - |
| 1778053769 | 22.22° C | 62% | 1011.5 hPa | 0 mm | 0.45 m/s, 248° | - | - |
| 1778053156 | 21.67° C | 62% | 1011.4 hPa | 0 mm | 0.89 m/s, 315° | - | - |
| 1778052856 | 21.67° C | 62% | 1011.6 hPa | 0 mm | 0.45 m/s, 315° | - | - |
| 1778052256 | 21.67° C | 62% | 1011.5 hPa | 0 mm | 0.45 m/s, 248° | - | - |
| 1778051956 | 21.67° C | 61% | 1011.5 hPa | 0 mm | 0.45 m/s, 203° | - | - |
| 1778051656 | 21.67° C | 61% | 1011.7 hPa | 0 mm | 0.89 m/s, 248° | - | - |
| 1778051356 | 21.67° C | 61% | 1011.6 hPa | 0 mm | 1.34 m/s, 270° | - | - |
| 1778051057 | 21.67° C | 61% | 1011.6 hPa | 0 mm | 0.89 m/s, 225° | - | - |
| 1778050756 | 21.67° C | 61% | 1011.6 hPa | 0 mm | 0.89 m/s, 270° | - | - |
| 1778050456 | 21.67° C | 61% | 1011.6 hPa | 0 mm | 0.89 m/s, 248° | - | - |
| 1778050156 | 21.67° C | 61% | 1011.5 hPa | 0 mm | 0.45 m/s, 248° | - | - |
| 1778049556 | 21.11° C | 60% | 1011.8 hPa | 0 mm | 0.89 m/s, 293° | - | - |
* Rain latest hour (hover to see other rain measurements)
** Current wind speed in m/s (hover to see current wind gust speed)